Regional Weather Roundup
Issued by NWS Huntsville, AL

Home | Current Version | Previous Version | Text Only | Print | Product List | Glossary On
Versions: 1 2 3 4 5 6 7 8 9 10 11 12 13 14 15 16 17 18 19 20 21 22 23 24 25 26 27
000
ASUS44 KHUN 301510
RWRHUN

WEATHER ROUNDUP FOR THE TENNESSEE VALLEY
NATIONAL WEATHER SERVICE HUNTSVILLE AL
1000 AM CDT FRI SEP 30 2016

ALZ001>004-301600-
NORTHWEST ALABAMA

CITY           SKY/WX    TMP DP  RH WIND       PRES   REMARKS
RUSSELLVILLE     N/A     57 N/A N/A MISG        N/A
SHOALS AIRPORT CLOUDY    59  53  80 NW6       30.13R
SHOALS TVA RES   N/A     57 N/A N/A MISG        N/A
$$

ALZ005>007-016-301600-
NORTH CENTRAL ALABAMA

CITY           SKY/WX    TMP DP  RH WIND       PRES   REMARKS
CULLMAN AG STN   N/A     55 N/A N/A CALM        N/A
DECATUR AP     CLOUDY    60  55  83 W5        30.12R
HUNTSVILLE AP  CLOUDY    60  54  80 CALM      30.11R
MERIDIANVILLE  CLOUDY    54  50  87 CALM      30.11R HAZE
REDSTONE ARSN  CLOUDY    57  54  90 W2        30.11R
VINEMONT AP    CLOUDY    56  54  91 CALM      30.13S
$$

ALZ008>010-301600-
NORTHEAST ALABAMA

CITY           SKY/WX    TMP DP  RH WIND       PRES   REMARKS
ALBERTVILLE    MOSUNNY   61  55  82 NW8       30.09S
FORT PAYNE     CLOUDY    55  46  71 CALM      30.10R
SCOTTSBORO AP  SUNNY     63  50  63 N5        30.10S
SCOTTSBORO HCN   N/A     61 N/A N/A MISG        N/A
VALLEY HEAD      N/A     55 N/A N/A MISG        N/A
$$

TNZ076-096-097-301600-
SOUTHEASTERN MIDDLE TENNESSEE

CITY           SKY/WX    TMP DP  RH WIND       PRES   REMARKS
TULLAHOMA      CLOUDY    54  54 100 NW5       30.11R
WINCHESTER     CLOUDY    57  52  82 CALM      30.10S
$$

...SURROUNDING SITES...

CITY           SKY/WX    TMP DP  RH WIND       PRES   REMARKS
ATLANTA        SUNNY     65  51  60 W6        30.07R
ANNISTON       MOSUNNY   65  48  54 NW8       30.11R
BIRMINGHAM     MOSUNNY   64  53  67 N7        30.14R
CHATTANOOGA    MOSUNNY   62  48  60 CALM      30.08S
CORINTH        CLOUDY    63  54  72 W9        30.12R
DALTON         SUNNY     61  52  72 N9        30.08S
GADSDEN        SUNNY     64  52  64 CALM      30.11R
GOLDEN TRNGL   MOSUNNY   66  52  59 N5        30.13R
HALEYVILLE     CLOUDY    58  54  86 NW5       30.14S
JACKSON TN     CLOUDY   N/A N/A N/A W3        30.12R
MEMPHIS        MOSUNNY   68  57  68 VRB6      30.12S
NASHVILLE      CLOUDY    60  54  80 NW7       30.08R
OXFORD MS      PTSUNNY   66  54  63 NW6       30.14S
ROME           SUNNY     63  49  60 NW6       30.08R
SAVANNAH       CLOUDY    59  55  88 NW3       30.11S
TUPELO         SUNNY     67  52  58 NW9       30.11S
TUSCALOOSA     SUNNY     64  53  67 CALM      30.12F
$$

...GULF COAST WEATHER...

CITY           SKY/WX    TMP DP  RH WIND       PRES   REMARKS
GULFPORT       SUNNY     72  54  53 N6        30.13R
PASCAGOULA     SUNNY     71  57  61 N5        30.13S
MOBILE         SUNNY     71  55  56 N5        30.14R
GULF SHORES    SUNNY     71  56  58 NW6       30.12S
PENSACOLA      SUNNY     73  54  51 N6        30.11R
DESTIN         SUNNY     75  54  47 N6        30.11R
PANAMA CITY    SUNNY     73  53  49 E9        30.09R
APPALACHICOLA  SUNNY     76  57  51 N8        30.07R
$$





USA.gov is the U.S. government's official web portal to all federal, state and local government web resources and services.